| time (UTC) | temp F | wind direction | speed MPH | gust MPH | rain 1hr in | rain 24hr in | rain mn in | humidity % | barometer mb |
| 20260905163004 | 78 | 192 | 3.0 | 8.0 | 0.00 | 0.00 | 0.00 | 37 | 1023.1 |
| 20260905162503 | 77 | 128 | 4.0 | 13.0 | 0.00 | 0.00 | 0.00 | 38 | 1023.0 |
| 20260905162003 | 77 | 128 | 11.0 | 13.0 | 0.00 | 0.00 | 0.00 | 38 | 1023.2 |
| 20260905161504 | 76 | 118 | 6.0 | 16.0 | 0.00 | 0.00 | 0.00 | 39 | 1022.9 |
| 20260905161004 | 77 | 112 | 6.0 | 10.0 | 0.00 | 0.00 | 0.00 | 38 | 1022.8 |
| 20260905160504 | 77 | 141 | 9.0 | 11.0 | 0.00 | 0.00 | 0.00 | 38 | 1022.9 |
| 20260905160004 | 76 | 135 | 5.0 | 11.0 | 0.00 | 0.00 | 0.00 | 38 | 1023.0 |
| 20260905155503 | 77 | 136 | 3.0 | 10.0 | 0.00 | 0.00 | 0.00 | 37 | 1023.0 |
| 20260905155003 | 76 | 126 | 5.0 | 13.0 | 0.00 | 0.00 | 0.00 | 38 | 1022.8 |
| 20260905154503 | 76 | 185 | 3.0 | 9.0 | 0.00 | 0.00 | 0.00 | 38 | 1022.8 |
| 20260905154003 | 77 | 106 | 5.0 | 7.0 | 0.00 | 0.00 | 0.00 | 39 | 1022.7 |
| 20260905153503 | 76 | 125 | 4.0 | 6.0 | 0.00 | 0.00 | 0.00 | 41 | 1023.0 |
| 20260905153004 | 76 | 156 | 3.0 | 6.0 | 0.00 | 0.00 | 0.00 | 41 | 1022.9 |
| 20260905152504 | 75 | 130 | 8.0 | 10.0 | 0.00 | 0.00 | 0.00 | 42 | 1022.8 |
| 20260905152004 | 75 | 82 | 2.0 | 6.0 | 0.00 | 0.00 | 0.00 | 43 | 1022.7 |
| 20260905150003 | 74 | 251 | 0.0 | 6.0 | 0.00 | 0.00 | 0.00 | 45 | 1022.7 |
| 20260905145504 | 73 | 116 | 4.0 | 6.0 | 0.00 | 0.00 | 0.00 | 46 | 1022.7 |
| 20260905145003 | 73 | 128 | 4.0 | 4.0 | 0.00 | 0.00 | 0.00 | 47 | 1022.9 |
| 20260905144503 | 73 | 125 | 5.0 | 6.0 | 0.00 | 0.00 | 0.00 | 43 | 1022.7 |
| 20260905144003 | 72 | 186 | 4.0 | 7.0 | 0.00 | 0.00 | 0.00 | 44 | 1022.8 |
| 20260905143503 | 72 | 162 | 2.0 | 4.0 | 0.00 | 0.00 | 0.00 | 45 | 1022.5 |
| 20260905143003 | 72 | 183 | 2.0 | 2.0 | 0.00 | 0.00 | 0.00 | 46 | 1022.6 |
| 20260905142504 | 70 | 23 | 0.0 | 2.0 | 0.00 | 0.00 | 0.00 | 48 | 1022.6 |
| 20260905141003 | 67 | 79 | 2.0 | 3.0 | 0.00 | 0.00 | 0.00 | 53 | 1022.6 |
| 20260905140503 | 65 | 66 | 0.0 | 3.0 | 0.00 | 0.00 | 0.00 | 55 | 1022.6 |
| 20260905140004 | 65 | 130 | 2.0 | 3.0 | 0.00 | 0.00 | 0.00 | 56 | 1022.5 |
| 20260905135504 | 65 | 234 | 3.0 | 3.0 | 0.00 | 0.00 | 0.00 | 57 | 1022.4 |
| 20260905135004 | 64 | 339 | 0.0 | 2.0 | 0.00 | 0.00 | 0.00 | 59 | 1022.3 |
| 20260905134503 | 61 | 77 | 2.0 | 2.0 | 0.00 | 0.00 | 0.00 | 63 | 1022.4 |
| 20260905134004 | 60 | 259 | 2.0 | 5.0 | 0.00 | 0.00 | 0.00 | 65 | 1022.3 |
| 20260905133503 | 59 | 271 | 4.0 | 5.0 | 0.00 | 0.00 | 0.00 | 66 | 1022.3 |
| 20260905133003 | 58 | 260 | 2.0 | 3.0 | 0.00 | 0.00 | 0.00 | 67 | 1022.3 |
| 20260905132503 | 58 | 201 | 3.0 | 3.0 | 0.00 | 0.00 | 0.00 | 68 | 1022.3 |
| 20260905132004 | 58 | 113 | 4.0 | 4.0 | 0.00 | 0.00 | 0.00 | 67 | 1022.2 |
| 20260905131503 | 57 | 80 | 0.0 | 2.0 | 0.00 | 0.00 | 0.00 | 68 | 1022.0 |
| 20260905131003 | 57 | 283 | 3.0 | 4.0 | 0.00 | 0.00 | 0.00 | 68 | 1021.9 |
| 20260905130504 | 56 | 279 | 3.0 | 4.0 | 0.00 | 0.00 | 0.00 | 69 | 1021.8 |
| 20260905130004 | 56 | 268 | 4.0 | 5.0 | 0.00 | 0.00 | 0.00 | 68 | 1022.1 |
| 20260905125504 | 57 | 262 | 5.0 | 7.0 | 0.00 | 0.00 | 0.00 | 68 | 1022.0 |
| 20260905125004 | 56 | 279 | 3.0 | 5.0 | 0.00 | 0.00 | 0.00 | 67 | 1021.9 |
| 20260905123003 | 57 | 194 | 0.0 | 2.0 | 0.00 | 0.00 | 0.00 | 65 | 1021.7 |
| 20260905122503 | 57 | 37 | 0.0 | 0.0 | 0.00 | 0.00 | 0.00 | 64 | 1021.7 |
| 20260905122004 | 58 | 43 | 0.0 | 2.0 | 0.00 | 0.00 | 0.00 | 63 | 1021.8 |
| 20260905121503 | 59 | 88 | 3.0 | 4.0 | 0.00 | 0.00 | 0.00 | 61 | 1021.6 |
| 20260905121003 | 61 | 308 | 0.0 | 4.0 | 0.00 | 0.00 | 0.00 | 58 | 1021.7 |
| 20260905120503 | 61 | 265 | 4.0 | 5.0 | 0.00 | 0.00 | 0.00 | 57 | 1021.8 |
| 20260905120004 | 61 | 263 | 4.0 | 6.0 | 0.00 | 0.00 | 0.00 | 57 | 1021.7 |
| 20260905115504 | 63 | 261 | 5.0 | 5.0 | 0.00 | 0.00 | 0.00 | 55 | 1021.7 |
| 20260905113504 | 62 | 265 | 5.0 | 7.0 | 0.00 | 0.00 | 0.00 | 54 | 1021.7 |
| 20260905113004 | 61 | 269 | 5.0 | 6.0 | 0.00 | 0.00 | 0.00 | 56 | 1021.6 |
| 20260905112504 | 60 | 267 | 3.0 | 5.0 | 0.00 | 0.00 | 0.00 | 57 | 1021.6 |
| 20260905112004 | 60 | 261 | 5.0 | 5.0 | 0.00 | 0.00 | 0.00 | 58 | 1021.7 |
| 20260905111503 | 59 | 264 | 4.0 | 5.0 | 0.00 | 0.00 | 0.00 | 59 | 1021.7 |
| 20260905111004 | 58 | 237 | 3.0 | 5.0 | 0.00 | 0.00 | 0.00 | 60 | 1021.9 |
| 20260905110503 | 57 | 253 | 4.0 | 4.0 | 0.00 | 0.00 | 0.00 | 62 | 1021.8 |
| 20260905110004 | 56 | 253 | 3.0 | 4.0 | 0.00 | 0.00 | 0.00 | 62 | 1021.8 |
| 20260905105504 | 55 | 249 | 2.0 | 5.0 | 0.00 | 0.00 | 0.00 | 64 | 1021.7 |
| 20260905105003 | 56 | 272 | 3.0 | 3.0 | 0.00 | 0.00 | 0.00 | 63 | 1021.5 |
| 20260905104503 | 56 | 247 | 3.0 | 3.0 | 0.00 | 0.00 | 0.00 | 62 | 1021.7 |
| 20260905104003 | 56 | 263 | 3.0 | 4.0 | 0.00 | 0.00 | 0.00 | 62 | 1021.8 |
| 20260905103503 | 57 | 259 | 2.0 | 3.0 | 0.00 | 0.00 | 0.00 | 60 | 1021.6 |
| 20260905103004 | 58 | 260 | 3.0 | 4.0 | 0.00 | 0.00 | 0.00 | 58 | 1021.7 |
| 20260905102504 | 59 | 234 | 2.0 | 4.0 | 0.00 | 0.00 | 0.00 | 57 | 1021.6 |
| 20260905102004 | 59 | 215 | 2.0 | 3.0 | 0.00 | 0.00 | 0.00 | 56 | 1021.5 |
| 20260905101504 | 60 | 255 | 3.0 | 4.0 | 0.00 | 0.00 | 0.00 | 54 | 1021.5 |
| 20260905101003 | 61 | 265 | 4.0 | 4.0 | 0.00 | 0.00 | 0.00 | 54 | 1021.3 |
| 20260905100503 | 61 | 232 | 3.0 | 4.0 | 0.00 | 0.00 | 0.00 | 53 | 1021.4 |
| 20260905100003 | 61 | 255 | 4.0 | 6.0 | 0.00 | 0.00 | 0.00 | 53 | 1021.6 |
| 20260905095504 | 61 | 197 | 3.0 | 6.0 | 0.00 | 0.00 | 0.00 | 54 | 1021.7 |
| 20260905095004 | 62 | 203 | 6.0 | 7.0 | 0.00 | 0.00 | 0.00 | 52 | 1021.8 |
| 20260905094504 | 62 | 204 | 6.0 | 12.0 | 0.00 | 0.00 | 0.00 | 52 | 1021.7 |
| 20260905094004 | 60 | 243 | 5.0 | 6.0 | 0.00 | 0.00 | 0.00 | 53 | 1021.7 |
| 20260905093503 | 60 | 185 | 4.0 | 7.0 | 0.00 | 0.00 | 0.00 | 53 | 1021.8 |
| 20260905093004 | 60 | 256 | 5.0 | 5.0 | 0.00 | 0.00 | 0.00 | 53 | 1021.6 |
| 20260905092504 | 60 | 248 | 3.0 | 5.0 | 0.00 | 0.00 | 0.00 | 53 | 1021.7 |
| 20260905092004 | 60 | 208 | 3.0 | 5.0 | 0.00 | 0.00 | 0.00 | 52 | 1021.8 |
| 20260905091504 | 60 | 228 | 5.0 | 5.0 | 0.00 | 0.00 | 0.00 | 53 | 1021.8 |
| 20260905091003 | 60 | 216 | 5.0 | 5.0 | 0.00 | 0.00 | 0.00 | 53 | 1021.8 |
| 20260905090503 | 60 | 229 | 0.0 | 6.0 | 0.00 | 0.00 | 0.00 | 52 | 1021.9 |
| 20260905090004 | 58 | 202 | 4.0 | 5.0 | 0.00 | 0.00 | 0.00 | 54 | 1021.7 |
| 20260905085503 | 57 | 225 | 3.0 | 4.0 | 0.00 | 0.00 | 0.00 | 55 | 1021.8 |
| 20260905085003 | 57 | 269 | 0.0 | 4.0 | 0.00 | 0.00 | 0.00 | 56 | 1021.8 |
| 20260905084504 | 57 | 244 | 2.0 | 4.0 | 0.00 | 0.00 | 0.00 | 56 | 1021.8 |
| 20260905084004 | 57 | 247 | 2.0 | 3.0 | 0.00 | 0.00 | 0.00 | 55 | 1021.9 |
| 20260905083504 | 58 | 256 | 2.0 | 5.0 | 0.00 | 0.00 | 0.00 | 54 | 1021.9 |
| 20260905083004 | 58 | 242 | 0.0 | 4.0 | 0.00 | 0.00 | 0.00 | 54 | 1021.8 |
| 20260905082503 | 58 | 274 | 2.0 | 2.0 | 0.00 | 0.00 | 0.00 | 53 | 1022.0 |
| 20260905082003 | 58 | 280 | 3.0 | 5.0 | 0.00 | 0.00 | 0.00 | 53 | 1022.1 |
| 20260905081504 | 58 | 257 | 3.0 | 3.0 | 0.00 | 0.00 | 0.00 | 54 | 1022.1 |
| 20260905075503 | 58 | 263 | 4.0 | 4.0 | 0.00 | 0.00 | 0.00 | 54 | 1022.0 |
| 20260905075003 | 58 | 261 | 2.0 | 3.0 | 0.00 | 0.00 | 0.00 | 55 | 1022.1 |
| 20260905074503 | 59 | 264 | 3.0 | 4.0 | 0.00 | 0.00 | 0.00 | 53 | 1021.9 |
| 20260905074003 | 59 | 273 | 4.0 | 5.0 | 0.00 | 0.00 | 0.00 | 53 | 1021.8 |
| 20260905073503 | 59 | 267 | 3.0 | 3.0 | 0.00 | 0.00 | 0.00 | 53 | 1022.2 |
| 20260905073004 | 60 | 267 | 3.0 | 3.0 | 0.00 | 0.00 | 0.00 | 52 | 1022.0 |
| 20260905071004 | 62 | 259 | 3.0 | 4.0 | 0.00 | 0.00 | 0.00 | 50 | 1022.0 |
| 20260905070504 | 62 | 260 | 2.0 | 3.0 | 0.00 | 0.00 | 0.00 | 49 | 1022.0 |
| 20260905070004 | 62 | 266 | 2.0 | 3.0 | 0.00 | 0.00 | 0.00 | 49 | 1022.0 |
| 20260905065504 | 63 | 266 | 2.0 | 3.0 | 0.00 | 0.00 | 0.00 | 48 | 1022.1 |
| 20260905065004 | 64 | 261 | 3.0 | 3.0 | 0.00 | 0.00 | 0.00 | 46 | 1022.1 |
| 20260905064504 | 64 | 272 | 2.0 | 3.0 | 0.00 | 0.00 | 0.00 | 46 | 1022.2 |
| 20260905062503 | 66 | 229 | 3.0 | 5.0 | 0.00 | 0.00 | 0.00 | 43 | 1021.8 |
| 20260905062003 | 67 | 240 | 3.0 | 3.0 | 0.00 | 0.00 | 0.00 | 43 | 1021.7 |
| 20260905061504 | 66 | 259 | 3.0 | 3.0 | 0.00 | 0.00 | 0.00 | 43 | 1021.9 |
| 20260905054004 | 68 | 254 | 0.0 | 3.0 | 0.00 | 0.00 | 0.00 | 44 | 1021.7 |
| 20260905053504 | 68 | 237 | 3.0 | 4.0 | 0.00 | 0.00 | 0.00 | 44 | 1021.8 |
| 20260905053004 | 69 | 201 | 2.0 | 3.0 | 0.00 | 0.00 | 0.00 | 43 | 1021.8 |
| 20260905052503 | 69 | 229 | 3.0 | 4.0 | 0.00 | 0.00 | 0.00 | 43 | 1021.8 |
| 20260905052003 | 69 | 219 | 4.0 | 5.0 | 0.00 | 0.00 | 0.00 | 44 | 1021.9 |
| 20260905051503 | 69 | 224 | 3.0 | 5.0 | 0.00 | 0.00 | 0.00 | 44 | 1021.8 |
| 20260905051003 | 70 | 215 | 4.0 | 6.0 | 0.00 | 0.00 | 0.00 | 43 | 1021.6 |
| 20260905050503 | 70 | 219 | 3.0 | 6.0 | 0.00 | 0.00 | 0.00 | 43 | 1021.7 |
| 20260905050004 | 70 | 205 | 5.0 | 5.0 | 0.00 | 0.00 | 0.00 | 42 | 1021.7 |
| 20260905045504 | 70 | 199 | 4.0 | 4.0 | 0.00 | 0.00 | 0.00 | 42 | 1021.8 |
| 20260905045004 | 71 | 209 | 2.0 | 7.0 | 0.00 | 0.00 | 0.00 | 42 | 1021.5 |
| 20260905044504 | 71 | 190 | 5.0 | 9.0 | 0.00 | 0.00 | 0.00 | 43 | 1021.5 |
| 20260905042504 | 71 | 215 | 4.0 | 6.0 | 0.00 | 0.00 | 0.00 | 51 | 1021.5 |
| 20260905042004 | 72 | 188 | 7.0 | 10.0 | 0.00 | 0.00 | 0.00 | 50 | 1021.6 |
| 20260905041504 | 72 | 194 | 8.0 | 9.0 | 0.00 | 0.00 | 0.00 | 51 | 1021.7 |
| 20260905041003 | 71 | 181 | 7.0 | 9.0 | 0.00 | 0.00 | 0.00 | 51 | 1021.3 |
| 20260905040503 | 71 | 193 | 5.0 | 7.0 | 0.00 | 0.00 | 0.00 | 51 | 1021.3 |
| 20260905040004 | 72 | 178 | 4.0 | 9.0 | 0.00 | 0.00 | 0.00 | 50 | 1021.3 |
| 20260905035503 | 72 | 173 | 9.0 | 9.0 | 0.00 | 0.00 | 0.00 | 50 | 1021.4 |
| 20260905035003 | 72 | 208 | 7.0 | 9.0 | 0.00 | 0.00 | 0.00 | 50 | 1021.5 |
| 20260905034504 | 72 | 173 | 5.0 | 8.0 | 0.00 | 0.00 | 0.00 | 50 | 1021.3 |
| 20260905032503 | 72 | 224 | 3.0 | 8.0 | 0.00 | 0.00 | 0.00 | 50 | 1021.0 |
| 20260905032003 | 72 | 217 | 6.0 | 11.0 | 0.00 | 0.00 | 0.00 | 50 | 1021.1 |
| 20260905031504 | 72 | 213 | 4.0 | 9.0 | 0.00 | 0.00 | 0.00 | 50 | 1021.3 |
| 20260905031003 | 72 | 188 | 6.0 | 8.0 | 0.00 | 0.00 | 0.00 | 50 | 1020.9 |
| 20260905030504 | 72 | 226 | 5.0 | 10.0 | 0.00 | 0.00 | 0.00 | 50 | 1020.7 |
| 20260905030004 | 72 | 224 | 5.0 | 8.0 | 0.00 | 0.00 | 0.00 | 49 | 1020.7 |
| 20260905024003 | 72 | 167 | 6.0 | 13.0 | 0.00 | 0.00 | 0.00 | 47 | 1020.7 |
| 20260905023503 | 73 | 177 | 7.0 | 10.0 | 0.00 | 0.00 | 0.00 | 47 | 1020.4 |
| 20260905023003 | 73 | 226 | 6.0 | 15.0 | 0.00 | 0.00 | 0.00 | 46 | 1020.5 |
| 20260905022503 | 73 | 196 | 5.0 | 14.0 | 0.00 | 0.00 | 0.00 | 46 | 1020.5 |
| 20260905022003 | 73 | 222 | 4.0 | 8.0 | 0.00 | 0.00 | 0.00 | 46 | 1020.5 |
| 20260905021504 | 73 | 213 | 10.0 | 15.0 | 0.00 | 0.00 | 0.00 | 45 | 1020.5 |
| 20260905015503 | 74 | 197 | 11.0 | 13.0 | 0.00 | 0.00 | 0.00 | 44 | 1020.4 |
| 20260905015003 | 74 | 187 | 12.0 | 13.0 | 0.00 | 0.00 | 0.00 | 44 | 1020.5 |
| 20260905014504 | 74 | 200 | 8.0 | 15.0 | 0.00 | 0.00 | 0.00 | 43 | 1020.4 |
| 20260905014003 | 74 | 214 | 7.0 | 10.0 | 0.00 | 0.00 | 0.00 | 43 | 1020.4 |
| 20260905013503 | 74 | 208 | 10.0 | 17.0 | 0.00 | 0.00 | 0.00 | 42 | 1020.3 |
| 20260905013004 | 75 | 211 | 11.0 | 14.0 | 0.00 | 0.00 | 0.00 | 42 | 1020.4 |
| 20260905012504 | 75 | 190 | 18.0 | 19.0 | 0.00 | 0.00 | 0.00 | 41 | 1020.4 |
| 20260905012004 | 76 | 194 | 13.0 | 20.0 | 0.00 | 0.00 | 0.00 | 40 | 1020.3 |
| 20260905011504 | 76 | 195 | 8.0 | 22.0 | 0.00 | 0.00 | 0.00 | 41 | 1020.3 |
| 20260905011004 | 76 | 213 | 9.0 | 18.0 | 0.00 | 0.00 | 0.00 | 41 | 1020.3 |
| 20260905010504 | 76 | 215 | 10.0 | 13.0 | 0.00 | 0.00 | 0.00 | 41 | 1020.2 |
| 20260905010004 | 77 | 216 | 9.0 | 14.0 | 0.00 | 0.00 | 0.00 | 40 | 1020.2 |
| 20260905005504 | 77 | 206 | 11.0 | 19.0 | 0.00 | 0.00 | 0.00 | 39 | 1020.3 |
| 20260905005003 | 77 | 217 | 14.0 | 18.0 | 0.00 | 0.00 | 0.00 | 41 | 1020.2 |
| 20260905004504 | 78 | 202 | 8.0 | 16.0 | 0.00 | 0.00 | 0.00 | 41 | 1020.3 |
| 20260905004003 | 78 | 247 | 9.0 | 17.0 | 0.00 | 0.00 | 0.00 | 41 | 1020.2 |
| 20260905003503 | 77 | 183 | 8.0 | 21.0 | 0.00 | 0.00 | 0.00 | 41 | 1020.2 |
| 20260905003004 | 78 | 218 | 10.0 | 16.0 | 0.00 | 0.00 | 0.00 | 41 | 1020.4 |
| 20260905002503 | 76 | 204 | 14.0 | 26.0 | 0.00 | 0.00 | 0.00 | 42 | 1020.4 |
| 20260905002003 | 77 | 202 | 14.0 | 26.0 | 0.00 | 0.00 | 0.00 | 43 | 1020.3 |
| 20260905001504 | 77 | 207 | 13.0 | 24.0 | 0.00 | 0.00 | 0.00 | 41 | 1020.4 |
| 20260905001003 | 78 | 187 | 14.0 | 22.0 | 0.00 | 0.00 | 0.00 | 41 | 1020.4 |
| 20260905000503 | 76 | 214 | 11.0 | 17.0 | 0.00 | 0.00 | 0.00 | 43 | 1020.4 |
| 20260905000004 | 76 | 209 | 11.0 | 23.0 | 0.00 | 0.00 | 0.00 | 44 | 1020.4 |
| 20260904235504 | 78 | 233 | 13.0 | 23.0 | 0.00 | 0.00 | 0.00 | 43 | 1020.3 |
| 20260904235004 | 78 | 214 | 15.0 | 29.0 | 0.00 | 0.00 | 0.00 | 42 | 1020.3 |
| 20260904234504 | 80 | 199 | 16.0 | 29.0 | 0.00 | 0.00 | 0.00 | 40 | 1020.2 |
| 20260904234004 | 79 | 205 | 10.0 | 15.0 | 0.00 | 0.00 | 0.00 | 41 | 1020.3 |
| 20260904233504 | 79 | 239 | 13.0 | 18.0 | 0.00 | 0.00 | 0.00 | 41 | 1020.3 |
| 20260904233004 | 78 | 241 | 10.0 | 17.0 | 0.00 | 0.00 | 0.00 | 41 | 1020.5 |
| 20260904232504 | 78 | 205 | 15.0 | 22.0 | 0.00 | 0.00 | 0.00 | 42 | 1020.2 |
| 20260904232004 | 78 | 220 | 13.0 | 18.0 | 0.00 | 0.00 | 0.00 | 43 | 1020.5 |
| 20260904231504 | 77 | 191 | 9.0 | 24.0 | 0.00 | 0.00 | 0.00 | 43 | 1020.3 |
| 20260904231003 | 79 | 220 | 13.0 | 21.0 | 0.00 | 0.00 | 0.00 | 40 | 1020.5 |
| 20260904230503 | 78 | 188 | 4.0 | 17.0 | 0.00 | 0.00 | 0.00 | 41 | 1020.3 |
| 20260904230004 | 78 | 210 | 5.0 | 17.0 | 0.00 | 0.00 | 0.00 | 41 | 1020.4 |
| 20260904225504 | 78 | 213 | 13.0 | 25.0 | 0.00 | 0.00 | 0.00 | 41 | 1020.4 |
| 20260904225004 | 79 | 275 | 23.0 | 24.0 | 0.00 | 0.00 | 0.00 | 40 | 1020.5 |
| 20260904224504 | 79 | 187 | 9.0 | 25.0 | 0.00 | 0.00 | 0.00 | 41 | 1020.5 |
| 20260904224003 | 80 | 207 | 11.0 | 21.0 | 0.00 | 0.00 | 0.00 | 40 | 1020.4 |
| 20260904223503 | 79 | 212 | 12.0 | 20.0 | 0.00 | 0.00 | 0.00 | 40 | 1020.5 |
| 20260904223004 | 78 | 207 | 12.0 | 22.0 | 0.00 | 0.00 | 0.00 | 40 | 1020.6 |
| 20260904222504 | 80 | 220 | 10.0 | 21.0 | 0.00 | 0.00 | 0.00 | 39 | 1020.6 |
| 20260904222004 | 80 | 258 | 8.0 | 13.0 | 0.00 | 0.00 | 0.00 | 38 | 1020.4 |
| 20260904221503 | 80 | 214 | 9.0 | 15.0 | 0.00 | 0.00 | 0.00 | 40 | 1020.7 |
| 20260904221003 | 80 | 200 | 10.0 | 16.0 | 0.00 | 0.00 | 0.00 | 41 | 1020.6 |
| 20260904220503 | 80 | 183 | 11.0 | 15.0 | 0.00 | 0.00 | 0.00 | 40 | 1020.6 |
| 20260904220003 | 79 | 187 | 5.0 | 15.0 | 0.00 | 0.00 | 0.00 | 40 | 1020.7 |
| 20260904215503 | 79 | 231 | 9.0 | 20.0 | 0.00 | 0.00 | 0.00 | 41 | 1020.8 |
| 20260904215003 | 79 | 253 | 10.0 | 15.0 | 0.00 | 0.00 | 0.00 | 41 | 1020.8 |
| 20260904211503 | 76 | 164 | 10.0 | 24.0 | 0.00 | 0.00 | 0.00 | 44 | 1021.1 |
| 20260904211003 | 76 | 247 | 13.0 | 27.0 | 0.00 | 0.00 | 0.00 | 45 | 1020.9 |
| 20260904210503 | 78 | 223 | 15.0 | 17.0 | 0.00 | 0.00 | 0.00 | 45 | 1021.1 |
| 20260904210004 | 77 | 197 | 7.0 | 17.0 | 0.00 | 0.00 | 0.00 | 44 | 1021.3 |
| 20260904205503 | 78 | 170 | 8.0 | 20.0 | 0.00 | 0.00 | 0.00 | 42 | 1021.1 |
| 20260904205004 | 76 | 205 | 16.0 | 24.0 | 0.00 | 0.00 | 0.00 | 45 | 1021.3 |
| 20260904204503 | 78 | 226 | 11.0 | 18.0 | 0.00 | 0.00 | 0.00 | 42 | 1021.0 |
| 20260904204003 | 76 | 186 | 14.0 | 14.0 | 0.00 | 0.00 | 0.00 | 47 | 1021.0 |
| 20260904203504 | 77 | 141 | 8.0 | 19.0 | 0.00 | 0.00 | 0.00 | 46 | 1021.3 |
| 20260904203004 | 76 | 173 | 13.0 | 21.0 | 0.00 | 0.00 | 0.00 | 47 | 1021.5 |
| 20260904202504 | 75 | 169 | 10.0 | 17.0 | 0.00 | 0.00 | 0.00 | 49 | 1021.5 |
| 20260904202004 | 75 | 200 | 5.0 | 21.0 | 0.00 | 0.00 | 0.00 | 49 | 1021.0 |
| 20260904201503 | 76 | 189 | 12.0 | 20.0 | 0.00 | 0.00 | 0.00 | 46 | 1021.3 |
| 20260904201003 | 76 | 145 | 7.0 | 15.0 | 0.00 | 0.00 | 0.00 | 49 | 1021.1 |
| 20260904200504 | 77 | 189 | 9.0 | 30.0 | 0.00 | 0.00 | 0.00 | 47 | 1021.5 |
| 20260904200004 | 76 | 188 | 9.0 | 10.0 | 0.00 | 0.00 | 0.00 | 49 | 1021.6 |
| 20260904195503 | 75 | 200 | 14.0 | 18.0 | 0.00 | 0.00 | 0.00 | 50 | 1021.5 |
| 20260904195004 | 76 | 190 | 10.0 | 17.0 | 0.00 | 0.00 | 0.00 | 47 | 1021.7 |
| 20260904194503 | 77 | 211 | 9.0 | 24.0 | 0.00 | 0.00 | 0.00 | 48 | 1021.5 |
| 20260904194003 | 77 | 161 | 6.0 | 22.0 | 0.00 | 0.00 | 0.00 | 46 | 1021.6 |
| 20260904193504 | 76 | 197 | 10.0 | 15.0 | 0.00 | 0.00 | 0.00 | 49 | 1021.9 |
| 20260904193004 | 77 | 160 | 13.0 | 19.0 | 0.00 | 0.00 | 0.00 | 48 | 1021.7 |
| 20260904192504 | 78 | 167 | 5.0 | 15.0 | 0.00 | 0.00 | 0.00 | 49 | 1021.6 |
| 20260904192004 | 77 | 208 | 10.0 | 21.0 | 0.00 | 0.00 | 0.00 | 47 | 1021.4 |
| 20260904191503 | 78 | 196 | 9.0 | 16.0 | 0.00 | 0.00 | 0.00 | 47 | 1021.6 |
| 20260904191004 | 76 | 156 | 3.0 | 24.0 | 0.00 | 0.00 | 0.00 | 49 | 1021.9 |
| 20260904190503 | 77 | 185 | 6.0 | 15.0 | 0.00 | 0.00 | 0.00 | 50 | 1021.8 |
| 20260904190003 | 76 | 163 | 11.0 | 19.0 | 0.00 | 0.00 | 0.00 | 50 | 1021.7 |
| 20260904185503 | 76 | 212 | 13.0 | 22.0 | 0.00 | 0.00 | 0.00 | 50 | 1021.7 |
| 20260904185004 | 76 | 155 | 5.0 | 16.0 | 0.00 | 0.00 | 0.00 | 52 | 1021.8 |
| 20260904184503 | 76 | 177 | 6.0 | 21.0 | 0.00 | 0.00 | 0.00 | 52 | 1022.0 |
| 20260904184003 | 76 | 163 | 10.0 | 26.0 | 0.00 | 0.00 | 0.00 | 51 | 1021.9 |
| 20260904183504 | 75 | 167 | 8.0 | 16.0 | 0.00 | 0.00 | 0.00 | 53 | 1021.9 |
| 20260904183004 | 73 | 250 | 11.0 | 18.0 | 0.00 | 0.00 | 0.00 | 56 | 1022.2 |
| 20260904182503 | 74 | 203 | 8.0 | 17.0 | 0.00 | 0.00 | 0.00 | 54 | 1022.0 |
| 20260904182004 | 75 | 209 | 14.0 | 22.0 | 0.00 | 0.00 | 0.00 | 49 | 1022.2 |
| 20260904180003 | 74 | 160 | 9.0 | 14.0 | 0.00 | 0.00 | 0.00 | 56 | 1022.1 |
| 20260904175503 | 75 | 205 | 9.0 | 16.0 | 0.00 | 0.00 | 0.00 | 51 | 1022.3 |
| 20260904175003 | 76 | 211 | 10.0 | 19.0 | 0.00 | 0.00 | 0.00 | 52 | 1022.2 |
| 20260904174503 | 75 | 176 | 17.0 | 24.0 | 0.00 | 0.00 | 0.00 | 52 | 1022.3 |
| 20260904174003 | 74 | 211 | 13.0 | 20.0 | 0.00 | 0.00 | 0.00 | 53 | 1022.2 |
| 20260904173504 | 76 | 116 | 9.0 | 18.0 | 0.00 | 0.00 | 0.00 | 53 | 1022.2 |
| 20260904173004 | 74 | 177 | 8.0 | 15.0 | 0.00 | 0.00 | 0.00 | 56 | 1022.1 |
| 20260904172504 | 74 | 159 | 10.0 | 22.0 | 0.00 | 0.00 | 0.00 | 55 | 1022.2 |
| 20260904172003 | 74 | 221 | 11.0 | 20.0 | 0.00 | 0.00 | 0.00 | 57 | 1022.1 |
| 20260904171503 | 75 | 176 | 8.0 | 17.0 | 0.00 | 0.00 | 0.00 | 55 | 1022.0 |
| 20260904171004 | 74 | 211 | 8.0 | 15.0 | 0.00 | 0.00 | 0.00 | 58 | 1022.2 |
| 20260904170504 | 73 | 224 | 11.0 | 12.0 | 0.00 | 0.00 | 0.00 | 59 | 1022.1 |
| 20260904170004 | 73 | 133 | 11.0 | 21.0 | 0.00 | 0.00 | 0.00 | 60 | 1022.1 |
| 20260904165504 | 73 | 161 | 9.0 | 19.0 | 0.00 | 0.00 | 0.00 | 59 | 1022.1 |
| 20260904165003 | 73 | 178 | 6.0 | 17.0 | 0.00 | 0.00 | 0.00 | 60 | 1022.1 |
| 20260904164503 | 73 | 244 | 3.0 | 18.0 | 0.00 | 0.00 | 0.00 | 60 | 1022.0 |
| 20260904164003 | 72 | 130 | 7.0 | 20.0 | 0.00 | 0.00 | 0.00 | 61 | 1021.8 |
| 20260904163504 | 73 | 169 | 3.0 | 16.0 | 0.00 | 0.00 | 0.00 | 61 | 1021.8 |